This is the latest recevied weather packets stored in our database for station/object W8AN. If no packets are shown the sender has not sent any weather packets the latest 1 day(s).
| Time | Temp. | Humidity | Pressure | Rain* | Wind** | Luminosity | Snow |
|---|---|---|---|---|---|---|---|
| 1778015934 | 10° C | 83% | 4262.8 hPa | 1.78 mm | 3.13 m/s, 334° | 54 W/m² | - |
| 1778015631 | 10° C | 83% | 4262.7 hPa | 1.78 mm | 4.02 m/s, 331° | 60 W/m² | - |
| 1778015328 | 9.44° C | 83% | 4262.8 hPa | 1.78 mm | 4.02 m/s, 320° | 68 W/m² | - |
| 1778015025 | 10° C | 83% | 4262.8 hPa | 1.27 mm | 4.47 m/s, 329° | 64 W/m² | - |
| 1778014721 | 10.56° C | 83% | 4263 hPa | 1.78 mm | 4.47 m/s, 330° | 29 W/m² | - |
| 1778014420 | 10.56° C | 83% | 4262.8 hPa | 1.78 mm | 3.13 m/s, 336° | 55 W/m² | - |
| 1778014116 | 10° C | 83% | 4262.8 hPa | 1.27 mm | 3.13 m/s, 328° | 54 W/m² | - |
| 1778013814 | 10° C | 83% | 4262.8 hPa | 3.05 mm | 3.13 m/s, 319° | 56 W/m² | - |
| 1778013511 | 10.56° C | 83% | 4262.7 hPa | 3.05 mm | 4.02 m/s, 331° | 55 W/m² | - |
| 1778013208 | 10.56° C | 82% | 4262.8 hPa | 3.05 mm | 6.71 m/s, 327° | 57 W/m² | - |
| 1778012904 | 10.56° C | 82% | 4262.7 hPa | 1.78 mm | 3.58 m/s, 337° | 62 W/m² | - |
| 1778012600 | 10.56° C | 82% | 4262.6 hPa | 3.05 mm | 2.68 m/s, 331° | 62 W/m² | - |
| 1778012297 | 10.56° C | 82% | 4262.8 hPa | 1.27 mm | 4.47 m/s, 315° | 69 W/m² | - |
| 1778011995 | 10.56° C | 82% | 4262.8 hPa | 1.78 mm | 2.24 m/s, 324° | 82 W/m² | - |
| 1778011693 | 10.56° C | 82% | 4262.8 hPa | 1.78 mm | 4.02 m/s, 325° | 86 W/m² | - |
| 1778011389 | 11.11° C | 82% | 4262.9 hPa | 1.27 mm | 3.13 m/s, 331° | 78 W/m² | - |
| 1778011085 | 10.56° C | 82% | 4263.2 hPa | 1.27 mm | 2.24 m/s, 311° | 82 W/m² | - |
| 1778010783 | 11.11° C | 82% | 4263 hPa | 0 mm | 3.13 m/s, 285° | 63 W/m² | - |
| 1778010480 | 11.11° C | 83% | 4262.8 hPa | 0 mm | 1.79 m/s, 290° | 132 W/m² | - |
| 1778010176 | 11.11° C | 82% | 4263 hPa | 0 mm | 1.34 m/s, 264° | 113 W/m² | - |
| 1778009876 | 11.11° C | 82% | 4263.2 hPa | 1.78 mm | 3.13 m/s, 249° | 106 W/m² | - |
| 1778009574 | 11.11° C | 83% | 4263.4 hPa | 1.78 mm | 1.79 m/s, 265° | 118 W/m² | - |
| 1778009273 | 11.11° C | 83% | 4263.2 hPa | 0 mm | 2.24 m/s, 254° | 143 W/m² | - |
| 1778008970 | 11.11° C | 83% | 4263.2 hPa | 0 mm | 2.24 m/s, 230° | 118 W/m² | - |
| 1778008668 | 11.11° C | 83% | 4263.4 hPa | 1.78 mm | 1.79 m/s, 238° | 113 W/m² | - |
* Rain latest hour (hover to see other rain measurements)
** Current wind speed in m/s (hover to see current wind gust speed)